Location: Unspecified
(0.0000°N, 0.0000°E)
Time: 23:53:41
(UTC+00:00)

S-56A Canister/Altair - Pass Details

Date: 08 October 2020
Orbit: 633 x 2499 km, 38.9° (Epoch: 28 October)

Event Time Altitude Azimuth Distance (km) Brightness Sun altitude
Rises 20:21:39 0° 305° (NW) 5,529 12.4 -38.3°
Reaches altitude 10° 20:25:45 10° 302° (WNW) 4,263 11.8 -39.3°
Enters shadow 20:35:16 57° 256° (WSW) 1,637 9.2 -41.7°
Maximum altitude 20:36:23 62° 225° (SW) 1,524 - -42.0°
Drops below altitude 10° 20:43:19 10° 144° (SE) 2,842 - -43.7°
Sets 20:45:34 0° 141° (SE) 3,605 - -44.2°
